TimePDT,TemperatureF,Dew PointF,Humidity,Sea Level PressureIn,VisibilityMPH,Wind Direction,Wind SpeedMPH,Gust SpeedMPH,PrecipitationIn,Events,Conditions,WindDirDegrees,DateUTC
12:53 AM,50.0,46.0,86,30.19,10.0,WSW,10.4,19.6,N/A,,Clear,240,2013-05-11 07:53:00
1:53 AM,48.0,45.0,89,30.17,10.0,SW,5.8,-,N/A,,Clear,220,2013-05-11 08:53:00
2:53 AM,48.0,46.0,93,30.18,10.0,WSW,10.4,-,N/A,,Clear,240,2013-05-11 09:53:00
3:29 AM,48.2,46.4,93,30.17,10.0,WSW,12.7,-,N/A,,Scattered Clouds,250,2013-05-11 10:29:00
3:40 AM,48.2,46.4,93,30.17,10.0,WSW,13.8,19.6,N/A,,Mostly Cloudy,240,2013-05-11 10:40:00
3:53 AM,48.9,46.9,93,30.18,10.0,SW,12.7,18.4,N/A,,Overcast,230,2013-05-11 10:53:00
4:53 AM,50.0,48.0,93,30.16,10.0,WSW,10.4,-,N/A,,Overcast,240,2013-05-11 11:53:00
5:53 AM,50.0,48.0,93,30.14,9.0,SW,8.1,-,N/A,,Overcast,230,2013-05-11 12:53:00
6:53 AM,50.0,48.0,93,30.14,10.0,SW,6.9,-,N/A,,Mostly Cloudy,230,2013-05-11 13:53:00
7:35 AM,51.8,48.2,88,30.16,10.0,WSW,6.9,-,N/A,,Mostly Cloudy,240,2013-05-11 14:35:00
7:53 AM,51.1,48.9,92,30.16,10.0,WSW,5.8,-,N/A,,Overcast,250,2013-05-11 14:53:00
8:14 AM,51.8,48.2,88,30.15,10.0,SW,9.2,-,N/A,,Scattered Clouds,220,2013-05-11 15:14:00
8:53 AM,54.0,48.9,83,30.14,10.0,Variable,4.6,-,N/A,,Clear,0,2013-05-11 15:53:00
9:53 AM,59.0,48.9,69,30.13,10.0,SSW,3.5,-,N/A,,Clear,200,2013-05-11 16:53:00
10:53 AM,66.9,48.9,52,30.12,10.0,Calm,Calm,-,N/A,,Clear,0,2013-05-11 17:53:00
11:53 AM,70.0,48.0,46,30.09,10.0,Calm,Calm,-,N/A,,Clear,0,2013-05-11 18:53:00
12:53 PM,73.9,48.0,40,30.08,10.0,Variable,3.5,-,N/A,,Clear,0,2013-05-11 19:53:00
1:53 PM,75.9,50.0,40,30.06,10.0,SW,9.2,-,N/A,,Clear,220,2013-05-11 20:53:00
2:53 PM,79.0,50.0,36,30.05,10.0,SW,12.7,-,N/A,,Clear,230,2013-05-11 21:53:00
3:53 PM,77.0,52.0,42,30.04,10.0,WSW,10.4,-,N/A,,Clear,250,2013-05-11 22:53:00
4:53 PM,75.0,52.0,44,30.03,10.0,WSW,12.7,-,N/A,,Clear,250,2013-05-11 23:53:00
5:53 PM,72.0,55.9,57,30.02,10.0,WSW,10.4,-,N/A,,Clear,250,2013-05-12 00:53:00
6:53 PM,71.1,57.0,61,30.01,10.0,WSW,17.3,24.2,N/A,,Clear,240,2013-05-12 01:53:00
7:53 PM,68.0,55.9,65,30.01,10.0,WSW,12.7,-,N/A,,Clear,240,2013-05-12 02:53:00
8:53 PM,64.0,55.9,75,30.02,10.0,SW,11.5,-,N/A,,Clear,230,2013-05-12 03:53:00
9:53 PM,62.1,55.0,78,30.02,10.0,WSW,5.8,-,N/A,,Clear,240,2013-05-12 04:53:00
10:53 PM,61.0,55.0,81,30.03,10.0,SSW,8.1,-,N/A,,Clear,210,2013-05-12 05:53:00
11:53 PM,60.1,54.0,80,30.04,10.0,WSW,10.4,-,0.00,,Mostly Cloudy,240,2013-05-12 06:53:00